430  
ASUS42 KCHS 190627  
RWRCHS  
 
REGIONAL WEATHER ROUNDUP  
NATIONAL WEATHER SERVICE CHARLESTON SC  
200 AM EDT TUE MAR 19 2019  
 
NOTE: "FAIR" INDICATES FEW OR NO CLOUDS BELOW 12,000 FEET WITH NO  
SIGNIFICANT WEATHER AND/OR S TO VISIBILITY
.  
 
NOT ALL STATIONS ARE QUALITY CONTROLLED. USE DATA WITH CAUTION,  
ESPECIALLY DEWPOINT OBSERVATIONS.  
 
SCZ027-030-031-034>040-042>050-190700-   
..SOUTHEAST SOUTH CAROLINA
 
 
 
CITY SKY/WX TMP DP RH WIND PRES REMARKS
 
N CHARLESTON MOCLDY 51 23 33 N12G21 30.24R  
6HR MIN TEMP: 49; 6HR MAX TEMP: 56;  
 
WATERFRONT PRK N/A 55 37 50 N14 30.08S  
MOUNT PLEASANT FAIR 50 30 46 N3 30.25R  
JOHNS ISLAND FAIR 52 28 40 N13 30.24R  
PINOPOLIS N/A 54 32 43 NE15 30.16S  
MONCKS CORNER FAIR 52 25 35 N7 30.26R  
SUMMERVILLE FAIR 50 27 40 N8 30.28R  
BEAUFORT MCAS FAIR 52 32 46 N8 30.23S  
6HR MIN TEMP: 51; 6HR MAX TEMP: 60;  
 
BEAUFORT ARPT FAIR 52 34 50 NE13 30.24R  
HILTON HEAD IS FAIR 55 30 38 NE15 30.24R  
WALTERBORO FAIR 52 23 32 NE8 30.27R  
ALLENDALE FAIR 52 19 28 N7 30.26S  
   
..SOUTHERN MIDLANDS AND PEE DEE
 
 
 
CITY SKY/WX TMP DP RH WIND PRES REMARKS
 
GEORGETOWN FAIR 50 32 50 NE10G18 30.27R  
KINGSTREE FAIR 46 23 39 N3 30.29R  
ORANGEBURG FAIR 49 19 30 NE9 30.29R  
6HR MIN TEMP: 49; 6HR MAX TEMP: 60;  
 
BARNWELL FAIR 48 18 29 NE10 30.29R  
AIKEN FAIR 45 18 33 NE9G18 30.33R  
MANNING FAIR 46 23 39 NE8 30.29R  
COLUMBIA FAIR 48 17 29 N9 30.31R  
6HR MIN TEMP: 48; 6HR MAX TEMP: 60;  
 
SUMTER FAIR 46 17 31 N15 30.30R  
6HR MIN TEMP: 46; 6HR MAX TEMP: 57;  
 
FLORENCE FAIR 48 23 37 NE12 30.31R  
6HR MIN TEMP: 48; 6HR MAX TEMP: 57;  
 
MYRTLE BEACH FAIR 49 35 58 N20 30.27R  
N MYRTLE BEACH FAIR 48 36 63 NE9 30.27R  
6HR MIN TEMP: 48; 6HR MAX TEMP: 56;  
 

 
 
GAZ063-065-086>088-099>101-113>116-118-119-134>141-150-190700-   
..SOUTHEAST GEORGIA
 
 
 
CITY SKY/WX TMP DP RH WIND PRES REMARKS
 
SAVANNAH ARPT FAIR 55 31 39 NE12 30.22R  
6HR MIN TEMP: 51; 6HR MAX TEMP: 63;  
 
HUNTER AAF FAIR 55 34 45 NE10 30.19R  
6HR MIN TEMP: 51; 6HR MAX TEMP: 59;  
 
FORT STEWART FAIR 53 32 44 N6 30.21R  
6HR MIN TEMP: 49; 6HR MAX TEMP: 60;  
 
STATESBORO FAIR 52 28 39 NE5 30.26R  
SYLVANIA FAIR 53 28 37 NE7G17 30.27R  
CLAXTON FAIR 54 32 43 N5 30.25R  
   
..CSRA, CENTRAL AND FAR SOUTHEAST GEORGIA
 
 
 
CITY SKY/WX TMP DP RH WIND PRES REMARKS
 
THOMSON FAIR 48 17 28 E9 30.36R  
AUGUSTA-BUSH FAIR 49 21 33 NE8 30.30R  
6HR MIN TEMP: 47; 6HR MAX TEMP: 59;  
 
AUGUSTA-DANIEL FAIR 50 15 24 N9 30.30R  
SWAINSBORO FAIR 52 27 37 NE8 30.27R  
VIDALIA FAIR 54 21 28 N7 30.25R  
EASTMAN FAIR 48 22 35 CALM 30.28F  
HAZLEHURST FAIR 54 20 27 N6 30.23S  
ALMA FAIR 54 27 35 N8 30.22S  
6HR MIN TEMP: 52; 6HR MAX TEMP: 58;  
 
WAYCROSS FAIR 54 21 28 N6 30.21F  
JESUP FAIR 57 25 28 N7 30.22R  
BAXLEY FAIR 50 27 40 N6 30.22F  
BRUNSWICK FAIR 52 43 71 NW8 30.21R  
SAINT SIMONS FAIR 56 40 55 N6 30.19R  
6HR MIN TEMP: 53; 6HR MAX TEMP: 61;  
 

 
 
SCZ027-028-034-036>038-045-046-048>050-GAZ119-141-190700-   
..LAKE AND SUPPLEMENTAL COASTAL OBSERVATIONS
 
 
 
STATION/POSITION TIME TEMP WIND PRES WAVE SWELL
 
AIR SEA DIR/SP/G HT/PER HT/PER/DIR  
(UTC) (F) (DEG/KT/KT) (MB) (FT/S) (FT/S/D)  
WINYAH BAY 0545 52 30/ 10 1024.0R  
LAKE MURRAY 0520 47 20/ 3/ 7 1025.4  
ACE BASIN NERRS 0545 53 10/ 3 1024.0R  
FORT PULASKI 0600 56 62 40/ 15/ 18 1023.5  
SAPELO ISLAND 0600 52 10/ 3 1022.0  
 

 
 
ANZ835-935-AMZ111-154-330-350-352-354-370-450-454-472-190700-   
..C-MAN AND BUOY OBSERVATIONS
 
 
 
STATION/POSITION TIME TEMP WIND PRES WAVE SWELL
 
AIR SEA DIR/SP/G HT/PER HT/PER/DIR  
(UTC) (F) (DEG/KT/KT) (MB) (FT/S) (FT/S/D)  
BUOY 41004 0600 72 30/ 23/ 29 1022.8  
BUOY 41008 0550 61 61 290/ 8/ 10 1022.4R 3/ 8 3/ 60/ 8  
FOLLY BEACH CMAN 0600 54 10/ 17/ 20 1024.0S  
CAPERS NEARSHORE 0608 56 60 30/ 19/ 25 1023.4R  
FRIPP NEARSHORE 0608 58 60 40/ 21/ 27 1022.7R  
 
 
STATION/POSITION TIME TEMP WIND PRES WAVE SWELL
 
AIR SEA DIR/SP/G HT/PER HT/PER/DIR  
(UTC) (F) (DEG/KT/KT) (MB) (FT/S) (FT/S/D)  
5E ST. MARYS GA 0600 62 N/A 3/ 8  
FRYING PAN BUOY 0600 55 70 360/ 27/ 35 1024.0  
BUOY 41025 NOT AVBL  
CAPE LOOKOUT NC 0600 47 10/ 17/ 22 1025.5S  
BUOY 41002 0610 1017.2  
BUOY 41010 0610 69 74 20/ 19/ 21 1019.2  
ST AUGUSTINE FL 0600 59 62 310/ 4/ 5 1022.2S  
 

 
 
 
CLICK HERE TO GO TO PREVIOUS BULLETINS.

The Nexlab SC Page
The Nexlab GA Page Main Text Page